Location: Babice
(50.3480°N, 22.9363°E)
Time: 12:43:51
(UTC+00:00)

IRS-1D - Pass Details

Date: 14 July 2020
Orbit: 739 x 817 km, 98.6° (Epoch: 07 August)

Event Time Altitude Azimuth Distance (km) Brightness Sun altitude
Rises 00:37:24 0° 17° (NNE) 3,200 8.5 -13.0°
Reaches altitude 10° 00:39:44 10° 20° (NNE) 2,266 7.4 -12.9°
Maximum altitude 00:44:40 65° 102° (ESE) 817 3.7 -12.5°
Enters shadow 00:49:01 13° 184° (S) 2,036 5.2 -12.1°
